sat.trackr.live / text

‹ back to catalog

TIANQI-40

NORAD 67479 · 2026-010D

PAYLOAD ACTIVE UNKNOWN

§ Identity

Operator
Country
PRC
Launch date
2026-01-15
Launch site
YSLA
Launch vehicle
Mass (kg)
RCS (m²)

External: N2YO · Heavens-Above · Gunter

§ Orbital elements

Epoch: 2026-09-20T09:02:22.203168Z

Period
102.92 min
Inclination
44.9845°
Eccentricity
0.0009145
Mean motion
13.99173096 rev/d
Perigee alt
890.0 km
Apogee alt
903.3 km
Semi-major
7,274.8 km
B*
8.6102e-5
RAAN
18.4100°
Arg perigee
74.1701°
Mean anomaly
286.0139°
Rev number
3,472

§ Raw data

TIANQI-401 67479U 26010D   26263.37664587 -.00000003  00000+0  86102-4 0  99912 67479  44.9845  18.4100 0009145  74.1701 286.0139 13.99173096 34725

JSON: /api/v1/satellites/67479 · /tle

For live sub-satellite position, see the globe view (requires WebGL).

§ Visibility from observer

Set your observer location to see the next 7 days of passes ≥ 10°. The values pass through the URL so the page stays shareable.

No JS? Fill the form by hand. The geolocation button needs JavaScript.